Vorticity
6 7 5 7 6 5 4 5 3 5 6 7 9 11 8 10 15 27 10 -1 2 6 25 23 26 26 36 21 16 27 27 20 14 28 31 20 10 38 35 39 12 6 8
3 3 7 8 8 5 3 4 6 3 10 9 8 10 11 12 16 25 3 4 1 4 29 31 15 -6 3 -3 10 14 16 18 24 22 22 12 24 11 44 28 36 11 9
3 4 8 8 6 0 1 2 2 6 15 5 11 9 9 12 19 20 3 8 3 5 22 11 9 11 -5 6 1 14 16 27 7 18 21 24 23 19 14 52 18 28 11
4 4 7 6 7 1 1 4 7 7 8 12 9 10 11 16 18 19 10 6 3 5 7 19 19 8 1 9 10 8 23 35 42 13 13 17 25 20 24 23 49 19 18
4 8 4 6 7 -1 1 3 8 8 12 12 8 10 11 17 14 21 15 4 2 6 3 7 9 26 19 13 7 8 19 14 48 30 9 9 5 23 28 20 32 27 19
2 6 4 7 4 -0 1 3 10 12 9 9 11 10 13 19 16 19 16 4 10 4 3 5 8 6 14 25 12 7 27 14 4 28 16 7 -7 12 24 41 18 34 13
3 8 5 9 4 -1 3 3 8 8 10 10 12 9 17 16 17 13 12 5 3 3 -1 2 3 8 14 6 21 11 11 20 12 25 24 7 0 22 13 23 38 14 27
2 9 8 9 7 4 4 6 7 9 8 14 11 11 22 12 18 13 12 7 9 8 4 6 5 7 7 10 11 14 7 17 15 23 19 12 23 13 25 18 44 22 23
10 8 7 9 9 4 6 5 7 10 8 13 7 16 14 13 19 13 11 10 10 11 7 5 7 7 9 8 15 12 11 7 27 15 16 23 16 29 13 23 32 30 19
7 7 11 8 3 5 8 2 8 11 10 10 10 16 15 15 20 12 13 9 9 9 7 6 6 7 10 9 9 15 9 14 -0 31 19 17 18 15 19 17 28 33 28
9 8 8 6 3 6 7 6 8 11 11 8 14 14 11 17 17 14 12 12 9 12 7 5 6 7 9 6 6 7 16 7 9 5 30 17 12 16 26 19 32 21 30
5 9 8 3 3 6 5 3 11 9 11 9 14 13 11 17 17 12 16 10 12 11 5 5 6 6 8 8 6 6 11 18 8 9 26 16 19 21 27 42 30 29 34
8 7 5 3 4 5 8 5 12 10 9 11 13 11 15 15 15 16 14 9 12 11 6 5 5 7 8 8 7 5 4 14 14 7 7 29 16 18 17 16 19 28 32
5 6 7 5 6 5 10 8 12 11 8 11 13 11 17 13 13 14 9 9 12 6 6 5 6 8 8 9 9 10 10 7 20 11 6 7 26 15 23 20 16 6 10
3 9 5 8 5 8 9 9 12 9 8 12 12 11 15 12 11 11 11 6 9 6 5 6 8 7 9 9 11 12 10 9 13 21 6 6 16 20 15 21 6 9 17
6 8 9 7 4 10 9 12 13 9 10 12 11 14 14 11 12 10 5 17 7 5 4 8 7 8 7 9 12 14 14 15 17 28 13 5 5 23 20 18 10 31 -15
7 7 7 5 8 11 13 10 11 9 11 11 11 15 15 12 11 9 19 10 4 3 8 8 7 7 11 17 19 19 18 19 21 28 18 5 9 12 14 27 1 5 17
5 7 6 6 11 10 15 11 10 9 12 10 12 16 15 13 9 19 10 6 4 7 7 8 7 13 21 19 21 23 25 23 22 17 17 13 11 9 21 20 7 7 11
6 7 6 12 11 12 13 10 9 9 12 10 13 16 14 13 12 13 8 5 8 7 8 6 12 21 21 26 27 26 28 28 22 18 14 17 15 12 7 23 24 11 8
8 6 12 12 10 15 9 11 9 10 12 11 14 16 15 8 16 9 7 8 7 9 6 12 22 24 30 28 25 23 20 18 22 20 19 18 17 15 12 8 22 25 15
7 11 15 9 12 14 10 10 9 11 13 11 16 15 8 14 10 8 8 7 8 6 11 22 25 37 35 28 18 9 7 8 23 23 22 22 18 20 15 11 11 17 21
11 13 12 10 14 12 10 10 10 13 13 12 16 11 11 13 9 8 9 8 7 6 23 24 39 27 8 1 4 8 14 20 21 18 17 19 19 18 18 16 12 10 13
13 11 10 12 13 10 10 10 12 14 12 13 15 10 13 9 9 11 7 8 7 20 19 42 17 2 6 14 17 14 12 14 17 20 19 19 17 18 16 18 15 10 7
10 9 12 13 11 10 11 11 14 14 12 15 12 11 12 9 11 10 7 6 8 23 30 33 4 2 15 10 19 16 19 19 16 17 18 21 20 18 18 17 16 16 13
11 14 12 12 11 14 12 15 15 13 13 16 12 13 9 10 11 8 7 6 10 20 36 19 2 5 12 13 13 14 21 20 14 16 18 13 12 20 25 20 18 16 15
12 11 11 13 14 12 13 17 14 12 15 15 12 12 9 11 10 6 7 6 12 19 32 27 6 -1 5 6 11 11 17 16 17 16 13 13 14 18 15 20 22 20 18
Height
5848 5844 5837 5830 5822 5815 5807 5800 5791 5781 5768 5757 5747 5733 5719 5705 5692 5679 5666 5655 5642 5628 5614 5601 5591 5582 5575 5566 5557 5548 5541 5536 5531 5529 5528 5526 5524 5526 5531 5544 5560 5574 5593
5841 5836 5831 5824 5815 5809 5801 5792 5782 5772 5760 5746 5733 5720 5706 5693 5680 5668 5657 5646 5633 5621 5607 5595 5586 5577 5569 5558 5548 5538 5530 5521 5516 5513 5512 5514 5510 5513 5513 5521 5538 5555 5572
5835 5830 5825 5817 5808 5801 5793 5784 5772 5761 5751 5739 5724 5711 5697 5684 5672 5661 5649 5639 5627 5614 5601 5591 5581 5572 5562 5552 5540 5530 5520 5511 5504 5500 5499 5500 5500 5501 5500 5506 5517 5534 5550
5831 5824 5818 5810 5800 5792 5783 5773 5763 5751 5741 5730 5716 5703 5690 5677 5664 5652 5642 5630 5620 5608 5597 5585 5575 5564 5554 5545 5533 5520 5508 5497 5491 5491 5488 5488 5489 5490 5494 5494 5501 5515 5531
5823 5817 5808 5801 5792 5784 5776 5765 5755 5744 5732 5720 5706 5693 5680 5666 5654 5644 5634 5624 5613 5602 5591 5579 5568 5557 5546 5537 5527 5514 5501 5490 5482 5480 5480 5480 5479 5480 5482 5486 5489 5497 5510
5814 5808 5801 5794 5787 5777 5767 5757 5747 5736 5723 5710 5698 5684 5671 5659 5646 5636 5627 5618 5608 5597 5586 5575 5563 5552 5542 5531 5522 5510 5497 5487 5479 5474 5472 5471 5470 5470 5471 5474 5478 5483 5495
5808 5802 5795 5787 5781 5771 5760 5748 5738 5726 5714 5702 5689 5676 5663 5651 5638 5628 5620 5612 5602 5592 5582 5571 5560 5548 5538 5527 5516 5507 5494 5484 5475 5469 5466 5464 5462 5460 5460 5464 5467 5473 5479
5804 5799 5791 5781 5773 5765 5752 5740 5730 5718 5706 5693 5680 5668 5656 5642 5630 5620 5612 5604 5595 5586 5576 5566 5556 5544 5533 5522 5511 5501 5493 5481 5472 5465 5460 5456 5452 5451 5451 5453 5456 5463 5468
5801 5793 5783 5773 5764 5755 5745 5733 5722 5710 5698 5685 5672 5660 5648 5635 5623 5613 5604 5597 5588 5579 5570 5560 5550 5540 5529 5519 5508 5498 5488 5479 5469 5460 5454 5449 5446 5444 5445 5445 5448 5454 5461
5793 5784 5775 5766 5756 5747 5737 5725 5714 5702 5690 5677 5664 5652 5641 5628 5616 5607 5598 5590 5582 5573 5564 5554 5546 5536 5524 5514 5505 5495 5485 5475 5468 5458 5450 5445 5441 5439 5438 5439 5442 5447 5455
5783 5776 5768 5759 5750 5739 5729 5718 5706 5694 5682 5669 5656 5643 5633 5621 5610 5600 5592 5584 5576 5568 5558 5549 5541 5531 5521 5510 5500 5491 5483 5473 5463 5456 5448 5442 5438 5434 5432 5432 5435 5441 5449
5776 5769 5760 5751 5743 5732 5720 5708 5698 5687 5675 5662 5649 5635 5626 5614 5604 5595 5586 5579 5571 5563 5553 5544 5535 5526 5516 5506 5496 5487 5480 5473 5463 5453 5448 5440 5436 5432 5430 5428 5432 5437 5445
5771 5762 5754 5744 5734 5724 5713 5701 5691 5679 5667 5655 5642 5629 5619 5608 5598 5589 5581 5573 5565 5557 5548 5538 5529 5520 5510 5501 5491 5482 5474 5469 5462 5454 5445 5440 5435 5433 5430 5430 5430 5437 5444
5762 5753 5744 5736 5727 5716 5707 5695 5683 5672 5660 5648 5635 5622 5613 5603 5593 5585 5577 5568 5560 5551 5542 5533 5522 5514 5504 5495 5486 5477 5468 5461 5458 5451 5445 5439 5435 5432 5432 5430 5430 5439 5447
5754 5747 5737 5729 5720 5709 5698 5687 5676 5664 5652 5641 5629 5616 5606 5597 5587 5579 5571 5563 5554 5546 5536 5526 5515 5506 5497 5489 5479 5470 5461 5454 5450 5447 5441 5438 5435 5432 5432 5433 5432 5439 5447
5747 5740 5731 5721 5711 5700 5690 5680 5669 5658 5646 5634 5623 5611 5601 5592 5583 5574 5566 5557 5549 5540 5530 5520 5509 5500 5489 5479 5470 5461 5454 5447 5441 5440 5437 5433 5431 5430 5430 5432 5434 5439 5446
5739 5731 5722 5713 5703 5692 5681 5671 5662 5651 5640 5629 5617 5606 5596 5588 5579 5570 5561 5552 5544 5534 5524 5514 5502 5492 5480 5468 5458 5451 5444 5439 5435 5432 5430 5428 5427 5427 5427 5430 5433 5439 5445
5731 5722 5713 5704 5695 5685 5675 5664 5654 5644 5633 5622 5610 5600 5591 5582 5574 5566 5557 5548 5540 5530 5519 5507 5494 5482 5470 5457 5447 5439 5434 5430 5428 5426 5424 5423 5423 5424 5425 5427 5430 5435 5441
5724 5715 5706 5696 5685 5676 5667 5656 5646 5636 5626 5616 5605 5596 5587 5579 5570 5562 5554 5545 5535 5524 5513 5500 5487 5474 5461 5449 5440 5433 5428 5424 5422 5420 5419 5418 5419 5420 5422 5423 5426 5432 5437
5715 5707 5697 5686 5677 5669 5659 5650 5640 5630 5620 5610 5599 5591 5583 5575 5567 5559 5550 5541 5530 5519 5506 5493 5480 5467 5454 5446 5439 5433 5427 5422 5419 5416 5415 5415 5415 5417 5418 5421 5423 5427 5432
5706 5697 5689 5679 5670 5662 5652 5642 5633 5624 5614 5604 5595 5587 5579 5572 5563 5555 5546 5537 5526 5513 5501 5487 5474 5462 5453 5446 5441 5435 5430 5424 5419 5416 5414 5413 5414 5414 5416 5419 5422 5425 5428
5697 5689 5681 5670 5661 5653 5645 5636 5627 5618 5609 5600 5591 5584 5576 5569 5561 5552 5543 5533 5522 5510 5496 5482 5471 5464 5457 5450 5443 5437 5430 5424 5419 5416 5413 5412 5412 5413 5415 5417 5420 5423 5426
5687 5679 5670 5662 5653 5645 5638 5629 5621 5612 5603 5595 5587 5581 5573 5567 5559 5550 5541 5532 5520 5508 5495 5484 5475 5468 5461 5454 5446 5439 5433 5427 5422 5418 5414 5412 5412 5412 5414 5416 5418 5421 5425
5677 5670 5662 5654 5646 5638 5630 5622 5614 5606 5599 5592 5584 5579 5571 5565 5557 5549 5540 5530 5520 5507 5494 5485 5480 5475 5468 5460 5452 5444 5436 5430 5425 5421 5417 5415 5413 5413 5413 5415 5417 5419 5423
5668 5661 5653 5645 5637 5630 5623 5615 5608 5601 5594 5588 5582 5577 5570 5564 5556 5549 5540 5532 5521 5508 5497 5489 5485 5479 5473 5465 5456 5448 5441 5435 5430 5425 5421 5418 5416 5415 5414 5414 5416 5418 5420
5657 5650 5643 5636 5629 5622 5616 5610 5603 5597 5590 5585 5580 5575 5569 5563 5556 5549 5541 5532 5521 5509 5499 5491 5487 5481 5475 5468 5460 5453 5446 5439 5434 5430 5427 5424 5421 5419 5417 5416 5416 5417 5419